Simultaneous Nadir Overpasses (SNOs) Predictions

Prediction of SNOs between AQUA and NOAA-19 Satellite Orbit:

Table of predicted SNOs for the next 14.0 days since TLE Epoch: 5/28/2016
Index Date (AQUA) Time (AQUA) Lat,Lon (AQUA) SZA (AQUA ) Date (NOAA-19) Time (NOAA-19) Lat,Lon (NOAA-19) SZA (NOAA-19 ) Distance(km) Time Diff (sec)
1 05/28/2016 17:24:53 -80.81, 60.28 118.78 05/28/2016 17:24:51 -80.82, 60.18 118.76 1.82 2
2 05/30/2016 22:58:37 80.81, 156.91 60.90 05/30/2016 22:58:55 80.82, 156.75 60.92 3.02 18
3 06/02/2016 03:42:55 80.83, 85.53 60.66 06/02/2016 03:42:00 80.84, 85.47 60.70 1.16 55
4 06/02/2016 04:32:21 -80.83,-106.77 119.35 06/02/2016 04:32:59 -80.82,-106.76 119.38 0.89 38
5 06/04/2016 09:16:38 -80.83,-177.83 119.61 06/04/2016 09:16:03 -80.83,-177.90 119.58 1.51 35
6 06/04/20
